[[{"header":{"parameterUnit":"m.s-1","parameterCategory":1,"la1":30.2991,"la2":30.254,"lo1":-89.0895,"lo2":-89.0444,"dy":0.0017,"dx":0.0017,"nx":28,"ny":28,"refTime":"2024-06-03T03:00:00:Z","depth":0,"parameterNumber":2,"parameterNumberName":"U-component_of_WINDS"},"data":[0,0,0,0,0,0,0,0,0,0,0,0,0,0,0,0,0,0,0,0,0,0,0,0,0,0,0,0,0,0,0,0,0,0,0,0,0,0,0,0,0,0,0,0,0,0,0,0,0,0,0,0,0,0,0,0,0,0,-1.8158,-1.8158,0,-1.8216,-1.8217,-1.8218,-1.8228,-1.8227,-1.8227,-1.8226,-1.8292,-1.8294,-1.8296,0,0,0,0,0,0,0,0,0,0,0,0,0,-1.8061,-1.8063,-1.8158,-1.8158,-1.8159,-1.8216,-1.8217,-1.8218,-1.8228,-1.8227,-1.8227,-1.8226,-1.8291,-1.8294,-1.8296,0,0,0,0,0,0,0,0,0,0,0,0,0,-1.811,-1.8064,-1.8158,-1.8171,-1.8173,-1.8216,-1.8217,-1.8218,-1.8228,-1.8227,-1.8227,-1.8226,-1.829,-1.8293,-1.8297,-1.8332,0,0,-1.8307,-1.8308,0,0,0,0,0,0,0,0,-1.8107,-1.8113,-1.8168,-1.817,-1.8172,-1.8214,-1.8207,-1.8257,-1.8228,-1.8207,-1.8226,-1.8226,-1.8267,-1.8272,-1.8285,-1.8335,-1.8338,-1.8307,-1.8309,-1.831,-1.8311,0,0,0,0,0,0,0,-1.8104,-1.8111,-1.8181,-1.8169,-1.8171,-1.8176,-1.8182,-1.8216,-1.8241,-1.8209,-1.821,-1.8216,-1.8268,-1.8282,-1.8286,-1.8339,-1.8307,-1.831,-1.8312,-1.8313,-1.8424,-1.8425,0,0,0,0,0,0,-1.8097,-1.8108,-1.8179,-1.8183,-1.8137,-1.8179,-1.8185,-1.8201,-1.824,-1.8245,-1.8217,-1.8217,-1.8276,-1.8283,-1.8289,-1.8333,-1.831,-1.8314,-1.8315,-1.8423,-1.8424,-1.8425,0,0,0,0,0,0,-1.8095,-1.8103,-1.8177,-1.8146,-1.8155,-1.8181,-1.8199,-1.8203,-1.8217,-1.8246,-1.8251,-1.8226,-1.8276,-1.8284,-1.8321,-1.8336,-1.8315,-1.8318,-1.8422,-1.8424,-1.8425,-1.8423,0,0,0,0,0,0,-1.8092,-1.8102,-1.8114,-1.8146,-1.8157,-1.8206,-1.82,-1.8205,-1.8222,-1.8222,-1.8256,-1.8261,-1.8276,-1.8316,-1.8325,-1.834,-1.8321,-1.8421,-1.8423,-1.8424,-1.8421,-1.8424,-1.8426,0,0,0,0,0,-1.8089,-1.8112,-1.8115,-1.8123,-1.8172,-1.8207,-1.8214,-1.8228,-1.8223,-1.8236,-1.8256,-1.826,-1.8333,-1.832,-1.833,-1.8346,-1.842,-1.8422,-1.8424,-1.842,-1.8423,-1.8426,0,0,0,0,0,0,-1.8083,-1.8116,-1.812,-1.8154,-1.8177,-1.8208,-1.8225,-1.8231,-1.8258,-1.8257,-1.8276,-1.8284,-1.832,-1.8338,-1.8322,-1.8384,-1.8377,-1.8381,-1.8371,-1.8373,-1.8376,-1.837,-1.8323,0,0,0,0,0,-1.8086,-1.8109,-1.8138,-1.8165,-1.8177,-1.8199,-1.8215,-1.8225,-1.825,-1.8261,-1.8283,-1.831,-1.8339,-1.8358,-1.8386,-1.8425,-1.8433,-1.8442,-1.8444,-1.8445,-1.8448,-1.8471,-1.8476,-1.8432,-1.8432,-1.8432,0,0,-1.8091,-1.8113,-1.8126,-1.8165,-1.8184,-1.821,-1.8207,-1.8235,-1.8255,-1.8266,-1.8301,-1.8319,-1.8351,-1.8389,-1.8407,-1.8404,-1.8462,-1.8448,-1.8449,-1.8451,-1.8474,-1.8478,-1.8482,-1.8434,-1.8434,-1.8433,0,0,-1.8114,-1.8133,-1.8158,-1.8177,-1.8206,-1.8221,-1.8228,-1.8259,-1.827,-1.8306,-1.8316,-1.8341,-1.8391,-1.8413,-1.8431,-1.8465,-1.8471,-1.8475,-1.8485,-1.8508,-1.8511,-1.8514,-1.8527,-1.8531,-1.8478,-1.8478,-1.8478,0,-1.8118,-1.8155,-1.817,-1.8197,-1.8214,-1.8225,-1.8252,-1.8271,-1.8308,-1.8321,-1.8318,-1.8381,-1.8403,-1.8447,-1.8456,-1.847,-1.8479,-1.8469,-1.8509,-1.8512,-1.8515,-1.8528,-1.8532,-1.8478,-1.8478,-1.8478,-1.8478,0,-1.8159,-1.8185,-1.8202,-1.8236,-1.8256,-1.8283,-1.8304,-1.8323,-1.8332,-1.8348,-1.8387,-1.8414,-1.8448,-1.846,-1.847,-1.8507,-1.8504,-1.8505,-1.8497,-1.8519,-1.8531,-1.8536,-1.8478,-1.8478,-1.8478,-1.8478,0,0,-1.8177,-1.8221,-1.8227,-1.8243,-1.8277,-1.8298,-1.8328,-1.836,-1.8376,-1.8403,-1.8428,-1.8471,-1.8472,-1.8493,-1.8505,-1.8525,-1.8552,-1.8524,-1.8525,-1.8527,-1.8595,-1.8593,-1.8598,-1.8557,-1.8558,-1.8558,-1.8592,0,-1.8204,-1.8252,-1.8268,-1.8309,-1.8335,-1.8347,-1.8372,-1.8397,-1.8414,-1.844,-1.846,-1.849,-1.8489,-1.8502,-1.8522,-1.8544,-1.8565,-1.8542,-1.8582,-1.8583,-1.8571,-1.8604,-1.8602,-1.8633,-1.8597,-1.8598,-1.8599,0,-1.8241,-1.8266,-1.8309,-1.8341,-1.8353,-1.8375,-1.8407,-1.8431,-1.8461,-1.8472,-1.8496,-1.8507,-1.8541,-1.8533,-1.858,-1.8564,-1.8582,-1.8596,-1.8597,-1.86,-1.8591,-1.8608,-1.8643,-1.8647,-1.8606,-1.8605,-1.8605,0,-1.8249,-1.8295,-1.8327,-1.8341,-1.8379,-1.8395,-1.8412,-1.8441,-1.846,-1.8489,-1.8502,-1.8536,-1.8554,-1.8581,-1.8602,-1.8595,-1.8648,-1.8642,-1.8659,-1.8659,-1.8668,-1.8667,-1.8706,-1.8682,-1.8682,-1.8682,-1.8681,0,-1.8276,-1.8302,-1.8331,-1.8351,-1.8381,-1.8401,-1.8432,-1.845,-1.8476,-1.8501,-1.8516,-1.854,-1.8567,-1.8595,-1.8613,-1.865,-1.8658,-1.8669,-1.8673,-1.8667,-1.8666,-1.8678,-1.8676,-1.8683,-1.8683,-1.8682,-1.8682,0,-1.829,-1.8311,-1.8346,-1.838,-1.8389,-1.841,-1.844,-1.8461,-1.848,-1.8512,-1.852,-1.855,-1.8584,-1.8609,-1.8654,-1.8666,-1.8705,-1.871,-1.8694,-1.8696,-1.8711,-1.8709,-1.8758,-1.8766,-1.8738,-1.8738,-1.8738,0,-1.8305,-1.8325,-1.8361,-1.8378,-1.8395,-1.8422,-1.8442,-1.8463,-1.8483,-1.852,-1.8537,-1.8572,-1.8601,-1.8656,-1.8683,-1.8718,-1.8723,-1.8738,-1.8728,-1.8722,-1.8723,-1.872,-1.8723,-1.8739,-1.8739,-1.8739,-1.8739,0,-1.833,-1.834,-1.8366,-1.8396,-1.8419,-1.8444,-1.847,-1.8484,-1.8511,-1.8533,-1.8567,-1.859,-1.8635,-1.867,-1.8708,-1.8729,-1.8739,-1.8742,-1.8748,-1.8741,-1.8731,-1.8736,-1.8697,-1.8741,-1.874,-1.874,-1.874,-1.874,-1.8345,-1.8364,-1.8392,-1.8421,-1.8443,-1.8467,-1.8488,-1.851,-1.8538,-1.8575,-1.8587,-1.8623,-1.8655,-1.8707,-1.8728,-1.8759,-1.8758,-1.8766,-1.8768,-1.877,-1.8769,-1.8727,-1.8766,-1.8766,-1.8766,-1.8766,-1.8766,0,-1.837,-1.8389,-1.8416,-1.8451,-1.8475,-1.8481,-1.8511,-1.8531,-1.8561,-1.859,-1.8618,-1.8659,-1.8693,-1.8724,-1.8761,-1.8779,-1.8785,-1.8788,-1.8786,-1.8791,-1.8768,-1.8759,-1.8783,-1.8783,-1.8783,-1.8783,-1.8783,-1.8783,-1.8386,-1.8418,-1.8431,-1.8475,-1.8495,-1.8528,-1.8545,-1.8568,-1.8591,-1.8635,-1.8663,-1.8682,-1.8712,-1.8752,-1.8785,-1.8793,-1.8806,-1.8808,-1.8817,-1.8795,-1.8793,-1.8791,-1.8782,-1.8811,-1.8811,-1.8838,-1.8838,-1.8838]},{"header":{"parameterUnit":"m.s-1","parameterCategory":1,"la1":30.2991,"la2":30.254,"lo1":-89.0895,"lo2":-89.0444,"dy":0.0017,"dx":0.0017,"nx":28,"ny":28,"refTime":"2024-06-03T03:00:00:Z","depth":0,"parameterNumber":3,"parameterNumberName":"V-component_of_WINDS"},"data":[0,0,0,0,0,0,0,0,0,0,0,0,0,0,0,0,0,0,0,0,0,0,0,0,0,0,0,0,0,0,0,0,0,0,0,0,0,0,0,0,0,0,0,0,0,0,0,0,0,0,0,0,0,0,0,0,0,0,3.9721,3.9721,0,3.9774,3.9774,3.9775,3.9843,3.9844,3.9845,3.9846,3.9897,3.9897,3.9898,0,0,0,0,0,0,0,0,0,0,0,0,0,3.9675,3.9676,3.9721,3.9721,3.9722,3.9774,3.9774,3.9775,3.9842,3.9844,3.9845,3.9846,3.9897,3.9897,3.9898,0,0,0,0,0,0,0,0,0,0,0,0,0,3.9708,3.9676,3.9721,3.9762,3.9766,3.9774,3.9775,3.9775,3.9842,3.9844,3.9845,3.9847,3.9897,3.9897,3.9898,3.9868,0,0,3.9899,3.9899,0,0,0,0,0,0,0,0,3.9706,3.971,3.9755,3.9759,3.9764,3.9803,3.9777,3.9806,3.9842,3.9813,3.9846,3.9848,3.9864,3.9868,3.9874,3.987,3.9873,3.9899,3.99,3.99,3.99,0,0,0,0,0,0,0,3.9704,3.9708,3.9742,3.9756,3.9761,3.9777,3.9784,3.9783,3.9829,3.9816,3.9821,3.9826,3.9867,3.9873,3.9875,3.9873,3.9899,3.99,3.99,3.99,3.9849,3.9847,0,0,0,0,0,0,3.9696,3.9706,3.974,3.9743,3.9739,3.9777,3.9784,3.9789,3.9829,3.9837,3.9825,3.9829,3.9871,3.9875,3.9878,3.9846,3.99,3.99,3.9901,3.9851,3.9848,3.9847,0,0,0,0,0,0,3.9695,3.9698,3.9738,3.9726,3.9732,3.9776,3.9781,3.9789,3.9796,3.9836,3.9844,3.9823,3.9873,3.9877,3.987,3.9849,3.9901,3.9901,3.9852,3.985,3.9848,3.9782,0,0,0,0,0,0,3.9693,3.9697,3.9687,3.9725,3.9733,3.973,3.9779,3.9789,3.9797,3.9803,3.9836,3.9843,3.9874,3.9869,3.9871,3.985,3.9901,3.9855,3.9851,3.9848,3.9786,3.9777,3.977,0,0,0,0,0,3.9691,3.9666,3.9686,3.969,3.9721,3.9729,3.9733,3.977,3.9794,3.9784,3.981,3.9842,3.9851,3.9868,3.987,3.9849,3.9856,3.9852,3.9849,3.979,3.9779,3.977,0,0,0,0,0,0,3.9622,3.9671,3.9695,3.9681,3.97,3.974,3.9728,3.9758,3.977,3.9775,3.982,3.9827,3.9814,3.9831,3.985,3.9823,3.9858,3.9855,3.9813,3.9803,3.9795,3.9791,3.9902,0,0,0,0,0,3.9606,3.9609,3.9652,3.9635,3.9644,3.9684,3.9689,3.9716,3.9738,3.9746,3.9772,3.979,3.9798,3.9801,3.981,3.9789,3.9797,3.9776,3.9768,3.9761,3.9757,3.9748,3.9739,3.9834,3.9834,3.9834,0,0,3.9571,3.9598,3.9598,3.9622,3.964,3.9642,3.9691,3.969,3.9692,3.9746,3.9742,3.9761,3.9785,3.9771,3.9766,3.9785,3.9733,3.9756,3.975,3.9751,3.9743,3.9734,3.9726,3.9832,3.9832,3.9833,0,0,3.9509,3.953,3.9519,3.9537,3.9565,3.9592,3.9589,3.9625,3.964,3.9637,3.9677,3.968,3.9691,3.9706,3.9716,3.9661,3.969,3.9662,3.9619,3.961,3.9602,3.9596,3.9576,3.9569,3.9658,3.9658,3.9658,0,3.9463,3.9468,3.951,3.9507,3.9517,3.9567,3.9556,3.9571,3.9599,3.9604,3.9625,3.964,3.966,3.9651,3.9637,3.9643,3.9641,3.9658,3.96,3.9594,3.9589,3.957,3.9563,3.9655,3.9655,3.9655,3.9656,0,3.9409,3.9412,3.94,3.9428,3.9436,3.9429,3.9469,3.9472,3.9498,3.9523,3.9519,3.9545,3.956,3.956,3.9585,3.9554,3.9565,3.9592,3.9628,3.9575,3.9559,3.9552,3.9649,3.9651,3.9652,3.9653,0,0,3.9305,3.9356,3.9351,3.9365,3.9399,3.9402,3.9397,3.9413,3.9415,3.9433,3.943,3.9439,3.9464,3.9475,3.9503,3.9494,3.9449,3.9523,3.9524,3.9508,3.9417,3.9396,3.9387,3.9469,3.9468,3.9467,3.9415,0,3.9249,3.9246,3.9283,3.9269,3.9272,3.932,3.9316,3.9336,3.9359,3.9365,3.939,3.9396,3.9429,3.9436,3.943,3.9456,3.9431,3.946,3.9466,3.9466,3.9459,3.9379,3.9357,3.9306,3.9409,3.9408,3.9407,0,3.9184,3.92,3.9186,3.9222,3.9225,3.922,3.9238,3.9243,3.9267,3.9285,3.9297,3.9329,3.9326,3.9361,3.9358,3.9377,3.9382,3.9395,3.9394,3.9396,3.9433,3.9378,3.9291,3.9283,3.9397,3.9398,3.9399,0,3.911,3.9127,3.9121,3.9131,3.9173,3.9169,3.9186,3.9212,3.9219,3.9234,3.9239,3.9253,3.9261,3.9271,3.9306,3.9328,3.9299,3.9336,3.9313,3.9312,3.9305,3.9305,3.9216,3.9307,3.9308,3.9308,3.9308,0,3.9044,3.9033,3.9089,3.9085,3.9075,3.9118,3.9106,3.9128,3.915,3.9151,3.9193,3.9193,3.9239,3.9244,3.9271,3.9265,3.9268,3.9282,3.9289,3.9278,3.9276,3.9282,3.9286,3.9306,3.9306,3.9307,3.9307,0,3.8959,3.8995,3.8992,3.9032,3.9042,3.9033,3.9067,3.9065,3.9091,3.9092,3.9094,3.9135,3.9143,3.9179,3.9195,3.9213,3.9197,3.9212,3.9189,3.9194,3.9169,3.9171,3.9081,3.9072,3.9168,3.9167,3.9167,0,3.8914,3.8908,3.8947,3.8952,3.8967,3.8973,3.8981,3.9023,3.903,3.9057,3.9052,3.9063,3.9075,3.9085,3.9115,3.9128,3.9143,3.9111,3.9145,3.9135,3.9143,3.9143,3.9143,3.9103,3.9102,3.9101,3.91,0,3.8832,3.885,3.8861,3.8878,3.8887,3.8902,3.8919,3.892,3.8967,3.8972,3.8981,3.899,3.9007,3.9018,3.9036,3.9053,3.9084,3.9089,3.9085,3.9073,3.9061,3.9068,3.9169,3.9091,3.9092,3.9093,3.9093,3.9094,3.8766,3.8763,3.879,3.8801,3.8818,3.8834,3.8834,3.8861,3.887,3.8888,3.8912,3.8918,3.8942,3.897,3.8984,3.8989,3.9007,3.9,3.8998,3.8996,3.8991,3.906,3.8993,3.8993,3.8993,3.8994,3.8994,0,3.8686,3.8706,3.8715,3.8739,3.8747,3.8777,3.8798,3.8803,3.8808,3.8829,3.884,3.885,3.8861,3.8893,3.8907,3.8905,3.8919,3.8907,3.8907,3.8911,3.8974,3.8977,3.8895,3.8895,3.8895,3.8895,3.8895,3.8895,3.8645,3.8641,3.8663,3.8668,3.8689,3.8696,3.8705,3.872,3.8737,3.8747,3.8757,3.8778,3.8803,3.8819,3.883,3.8839,3.8842,3.8825,3.8839,3.8897,3.8906,3.8915,3.8918,3.8825,3.8825,3.8775,3.8775,3.8774]}]]